Regional Weather Roundup
Issued by NWS

Home | Current Version | Previous Version | Graphics & Text | Print | Product List | Glossary On
Versions: 1 2 3 4 5 6 7 8 9 10 11 12 13 14 15 16 17 18 19 20 21 22 23 24 25 26 27 28 29 30 31 32 33 34 35 36 37 38 39 40 41 42 43 44 45 46 47 48 49 50
000
ASUS45 KTFX 240810
RWRMT
MONTANA REGIONAL WEATHER ROUNDUP
NATIONAL WEATHER SERVICE GREAT FALLS MT
200 AM MDT WED AUG 24 2016

NOTE: "FAIR" INDICATES FEW OR NO CLOUDS BELOW 12000 FEET WITH NO
SIGNIFICANT WEATHER AND/OR OBSTRUCTIONS TO VISIBILITY.

MTZ001>007-043-240900-
WEST OF THE DIVIDE

CITY           SKY/WX    TMP DP  RH WIND       PRES   REMARKS
KALISPELL      MOCLDY    60  43  53 N18       30.22R
MISSOULA       MOCLDY    62  43  49 CALM      30.23R
BUTTE          CLEAR     45  30  55 SE7       30.30R
MULLAN PASS    CLEAR     49  36  61 VRB3      30.31R
DEER LODGE       N/A     54  39  58 N6        30.31R
EUREKA           N/A     54  43  66 CALM      30.25S
HAMILTON         N/A     48  37  66 SE5       30.22R
LIBBY            N/A     55  45  67 CALM      30.23S
PLAINS           N/A     54  50  86 CALM      30.21S
THOMPSON FALLS   N/A     55  41  59 CALM      30.25R
$$

MTZ008-052>055-240900-
SOUTHWEST MONTANA

CITY           SKY/WX    TMP DP  RH WIND       PRES   REMARKS
BOZEMAN        CLEAR     47  39  74 NE6       30.27R
DILLON         CLEAR     49  35  58 E9        30.24S
W YELLOWSTONE  CLEAR     32  18  55 CALM      30.29S
ENNIS          CLEAR     50  37  62 NE10      30.31R
THREE FORKS      N/A     53  26  35 CALM      30.24R
TWIN BRIDGES     N/A     54  35  48 N12       30.21R
$$

MTZ009-010-012-014-046-048-049-054-240900-
EAST SLOPES AND CENTRAL MONTANA

CITY           SKY/WX    TMP DP  RH WIND       PRES   REMARKS
CUT BANK       CLOUDY    52  45  77 NW14      30.28S
GREAT FALLS    CLOUDY    54  44  69 NW9       30.29R
MALMSTROM AFB  LGT RAIN  56  46  70 MISG      30.27S
HELENA         CLEAR     55  41  59 W7        30.27R
CHOTEAU          N/A     54  45  71 N9        30.30R
CONRAD           N/A     52  48  86 W5        30.27S
$$

MTZ011-013-016-021-045-047-050-051-240900-
NORTH CENTRAL MONTANA

CITY           SKY/WX    TMP DP  RH WIND       PRES   REMARKS
HAVRE          CLOUDY    56  50  80 W12       30.18R
LEWISTOWN      CLOUDY    55  46  71 W10       30.25R
N BAR RANCH    MOCLDY    54  45  71 NW12G18   30.24R
CHINOOK          N/A     57  52  82 W15       30.15R
$$

MTZ017>020-022>027-061-062-240900-
NORTHEAST MONTANA

CITY           SKY/WX    TMP DP  RH WIND       PRES   REMARKS
GLASGOW        PTCLDY    55  49  80 W21G28    30.04R
JORDAN           N/A     57  48  72 W14G24    30.10S
SIDNEY         CLEAR     59  48  67 W18       29.98R
WOLF POINT     CLEAR     59  49  69 W13       30.01R
POPLAR           N/A     57  48  72 W15       30.00R
SCOBEY           N/A     57  46  66 W24       29.95R
$$

MTZ028>42-056>058-240900-
SOUTHCENTRAL AND SOUTHEAST MONTANA

CITY           SKY/WX    TMP DP  RH WIND       PRES   REMARKS
BAKER          CLEAR     55  44  66 W13       30.09R
BILLINGS       CLEAR     58  42  55 CALM      30.23R
LIVINGSTON     CLEAR     48  39  71 NW6       30.26R
MILES CITY     CLEAR     57  44  62 W8        30.12R
EKALAKA          N/A     54  43  66 W6        30.09S
FORSYTH          N/A     57  46  67 W8        30.15R
LAUREL           N/A     50  39  65 CALM      30.20R
ROUNDUP          N/A     55  42  61 N6        30.11S
$$

REGIONAL REPORTS...DAKOTAS

CITY           SKY/WX    TMP DP  RH WIND       PRES   REMARKS
WILLISTON      CLEAR     58  47  66 W17       29.95R
MINOT          CLEAR     62  48  60 W14G23    29.86R
DICKINSON      CLEAR     56  46  69 W16       29.98S
CROSBY           N/A     54  50  87 W14       29.91R
BISMARCK       CLEAR     54  47  77 W6        29.94R
GRAND FORKS    CLEAR     59  55  87 W7        29.79F
FARGO          CLOUDY    68  57  68 W8        29.82S
BUFFALO SD       N/A     52  42  69 W12       30.03R
RAPID CITY     CLOUDY    59  34  39 NW10      30.10R
$$

REGIONAL REPORTS...WYOMING/IDAHO/WASHINGTON

CITY           SKY/WX    TMP DP  RH WIND       PRES   REMARKS
GILLETTE       CLOUDY    55  37  50 NW6       30.19R
SHERIDAN       CLEAR     55  42  61 W10       30.22S
BUFFALO WY     CLOUDY    56  38  50 NW12G24   30.24S
CODY           CLEAR     54  37  54 NW9       30.26S
YELLOWSTONE LA   N/A     44  22  41 CALM      30.34S
IDAHO FALLS    CLEAR     47  27  45 CALM      30.16R
SALMON         CLEAR     54  30  40 E5        30.21S
BOISE          CLEAR     62  34  35 SW3       30.09R
SPOKANE        MOCLDY    64  41  42 NE5       30.17S
$$

REGIONAL REPORTS...ALBERTA

CITY           SKY/WX    TMP DP  RH WIND       PRES   REMARKS
EDMONTON       MOCLDY    52  48  87 W8        30.23S
CALGARY        PTCLDY    48  43  81 N12       30.30R
LETHBRIDGE     PTCLDY    52  46  82 W13G18    30.27R
MEDICINE HAT   CLOUDY    55  46  71 NW13G18   30.18R
WATERTON GATE    N/A     50  48  93 CALM        N/A
MILK RIVER       N/A     54  46  76 NW20G25     N/A
ONEFOUR          N/A     54  50  87 NW20G26     N/A
$$

REGIONAL REPORTS...SASKATCHEWAN

CITY           SKY/WX    TMP DP  RH WIND       PRES   REMARKS
SWIFT CURRENT  CLOUDY    48  48 100 NW20G29   30.00R
REGINA         CLOUDY    55  54  94 NW15      29.83S
SASKATOON      LGT RAIN  54  54 100 N17G23    29.94R
CYPRESS HILLS    N/A     45  43  93 NW13G20     N/A
VAL MARIE        N/A     55  48  76 NW14G20     N/A
$$



USA.gov is the U.S. government's official web portal to all federal, state and local government web resources and services.